Home > Weather > Newark > Past weeks

Flag for USA Past Weather in Newark, New Jersey, USA — Yesterday and Last 2 Weeks

Now
64 °F

Clear.


Feels Like: 64 °F
Forecast: 64 / 84 °F
Wind: 9 mph from Northeast

Location: Newark International Airport

Current Time: Jun 25, 2016 at 4:47:41 AM

Latest Report: Jun 25, 2016 at 3:51 AM


Visibility: 10 mi

Pressure: 30.12 "Hg

Humidity: 81%

Dew Point: 58 °F

Location of NewarkLocation

Past Weather in Newark — Graph

°F

Newark Temperature Yesterday

Maximum temperature yesterday: 81 °F (at 11:51 AM)
Minimum temperature yesterday: 69 °F (at 2:51 AM)
Average temperature yesterday: 74 °F

High & Low Weather Summary for the Past Weeks

 TemperatureHumidityPressure
High91 °F (Jun 21, 3:51 PM)84% (Jun 17, 3:51 AM)30.30 "Hg (Jun 17, 3:51 AM)
Low56 °F (Jun 10, 5:51 AM)13% (Jun 12, 11:51 AM)29.61 "Hg (Jun 12, 9:51 AM)
Average74 °F49%29.93 "Hg
* Reported Jun 10 2:51 AM — Jun 25 2:51 AM, Newark, Weather by CustomWeather, © 2016

Note: Actual official high and low records may vary slightly from our data, if they occured in-between our weather recording intervals... More about our weather records

Advertising

Newark Weather History for the Previous 24 Hours

Scroll right to see more
 ConditionsComfort  
Time TempWeatherWind HumidityBarometerVisibility
2:51 AM
Sat, Jun 25
66 °FPassing clouds.5 mph78%30.11 "Hg10 mi
1:51 AM68 °FPassing clouds.6 mph76%30.11 "Hg10 mi
12:51 AM70 °FPassing clouds.No wind76%30.11 "Hg10 mi
11:51 PM
Fri, Jun 24
70 °FPassing clouds.No wind79%30.10 "Hg10 mi
10:51 PM69 °FPassing clouds.No wind81%30.10 "Hg10 mi
9:51 PM70 °FPassing clouds.No wind76%30.10 "Hg10 mi
8:51 PM71 °FScattered clouds.5 mph73%30.08 "Hg10 mi
7:51 PM73 °FScattered clouds.7 mph66%30.08 "Hg10 mi
6:51 PM76 °FScattered clouds.8 mph60%30.07 "Hg10 mi
5:51 PM77 °FBroken clouds.12 mph58%30.07 "Hg10 mi
4:51 PM77 °FScattered clouds.10 mph56%30.06 "Hg10 mi
3:51 PM78 °FBroken clouds.13 mph52%30.07 "Hg10 mi
2:51 PM79 °FScattered clouds.14 mph42%30.05 "Hg10 mi
1:51 PM80 °FScattered clouds.14 mph41%30.04 "Hg10 mi
12:51 PM81 °FScattered clouds.12 mph44%30.04 "Hg10 mi
11:51 AM81 °FScattered clouds.5 mph38%30.04 "Hg10 mi
10:51 AM80 °FPassing clouds.12 mph39%30.04 "Hg10 mi
9:51 AM78 °FPassing clouds.10 mph42%30.02 "Hg10 mi
8:51 AM76 °FPassing clouds.10 mph45%30.01 "Hg10 mi
7:51 AM72 °FPassing clouds.10 mph52%29.99 "Hg10 mi
6:51 AM70 °FPassing clouds.14 mph49%29.96 "Hg10 mi
5:51 AM69 °FPassing clouds.13 mph51%29.95 "Hg10 mi
4:51 AM69 °FPassing clouds.10 mph66%29.93 "Hg10 mi
Weather by CustomWeather, © 2016

See weather overviewHow to use our weather pages